Location: Newark
(34.3481°N, 134.0494°E)
Time: 03:58:20
(UTC+00:00)

Vanguard 3 - Visible Passes

Search period start: 18 January 2020 00:00
Search period end: 28 January 2020 00:00
Orbit: 508 x 3263 km, 33.3° (Epoch: 17 January)

Date Brightness Start Highest point End Pass type
(mag) Time Alt. Az. Time Alt. Az. Time Alt. Az.
18 Jan 9.7 09:41:32 10° SW 10:00:25 59° SSE 10:08:34 30° E visible
18 Jan 9.3 11:58:37 10° WSW 12:13:08 66° WSW 12:13:08 66° WSW visible
18 Jan 11.1 14:16:56 10° W 14:17:42 12° W 14:17:42 12° W visible
19 Jan 10.4 08:25:36 10° SW 08:43:59 47° SSE 08:58:14 10° E visible
19 Jan 9.2 10:40:51 10° WSW 10:59:44 75° SSE 11:03:22 57° E visible
19 Jan 10.1 12:59:09 10° W 13:07:56 37° W 13:07:56 37° W visible
20 Jan 9.9 09:23:48 10° SW 09:43:18 65° SSE 09:53:35 24° E visible
20 Jan 9.2 11:41:05 10° W 11:58:09 81° SW 11:58:09 81° SW visible
20 Jan 10.9 13:59:36 10° W 14:02:43 18° W 14:02:43 18° W visible
21 Jan 9.4 10:23:16 10° WSW 10:42:48 79° SSE 10:48:21 47° E visible
21 Jan 9.8 12:41:40 10° W 12:52:55 47° W 12:52:55 47° W visible
22 Jan 10.0 09:06:13 10° WSW 09:26:07 69° SSE 09:38:33 19° E visible
22 Jan 9.1 11:23:34 10° W 11:42:19 86° S 11:43:07 82° ESE visible
22 Jan 10.6 13:42:12 10° W 13:47:41 25° W 13:47:41 25° W visible
23 Jan 9.6 10:05:47 10° WSW 10:25:48 82° S 10:33:17 39° E visible
23 Jan 9.6 12:24:11 10° W 12:37:51 59° W 12:37:51 59° W visible
24 Jan 10.1 08:48:48 10° WSW 09:08:50 74° SSE 09:23:28 14° E visible
24 Jan 9.2 11:06:06 10° W 11:25:29 87° S 11:28:02 69° E visible
24 Jan 10.4 13:24:44 10° W 13:32:36 32° W 13:32:36 32° W visible
25 Jan 9.8 09:48:25 10° WSW 10:08:42 84° S 10:18:13 31° E visible
25 Jan 9.4 12:06:40 10° W 12:22:46 70° WSW 12:22:46 70° WSW visible
25 Jan 11.1 14:25:20 10° W 14:27:20 14° W 14:27:20 14° W visible
26 Jan 10.2 08:31:32 10° WSW 08:51:30 77° SSE 09:08:10 10° E visible
26 Jan 9.3 10:48:41 10° W 11:08:34 87° S 11:12:57 57° E visible
26 Jan 10.2 13:07:14 10° WNW 13:17:31 40° W 13:17:31 40° W visible
27 Jan 9.9 09:31:10 10° W 09:51:32 86° S 10:03:08 25° E visible
27 Jan 9.3 11:49:11 10° W 12:07:42 78° SSW 12:07:42 78° SSW visible
27 Jan 10.9 14:07:59 10° W 14:12:17 20° W 14:12:17 20° W visible
